Tracking 30995 objects as of 6-Jul-2025
HD Live streaming from Space Station
objects crossing your sky now

SKYNET 4E

Track SKYNET 4E now!
SKYNET 4E is classified as:


NORAD ID: 25639
Int'l Code: 1999-009B
Perigee: 35,782.4 km
Apogee: 35,803.9 km
Inclination: 11.9 °
Period: 1,436.1 minutes
Semi major axis: 42164 km
RCS: 5.2477 m2 (large)
Launch date: February 26, 1999
Source: United Kingdom (UK)
Launch site: FRENCH GUIANA (FRGUI)

Used primarily by UK's armed forces, government departments, agencies and other organizations that require secure communications.
Your satellite tracking list
Your tracking list is empty




NASA's NSSDC Master Catalog

Two Line Element Set (TLE):
1 25639U 99009B   25186.27890299 -.00000029  00000-0  00000-0 0  9992
2 25639  11.8550  11.0009 0002545 102.8443 268.8282  1.00273896 47706
Source of the keplerian elements: AFSPC